Weather History for KBFM - January, 2014

Change the Weather History Date:

Wednesday, January 29, 2014

  Actual Average Record
Temperature  
Mean Temperature 27 °F -  
Max Temperature 33 °F 58 °F 72 °F (2002)
Min Temperature 21 °F 41 °F 21 °F (2014)
Degree Days  
Heating Degree Days 38    
Moisture  
Dew Point 11 °F    
Average Humidity 53    
Maximum Humidity 72    
Minimum Humidity 35    
Precipitation  
Precipitation 0.00 in - - ()
Sea Level Pressure  
Sea Level Pressure 30.37 in    
Wind  
Wind Speed 14 mph (North)    
Max Wind Speed 17 mph    
Max Gust Speed 25 mph    
Visibility 10 miles    
Events      
Averages and records for this station are not official NWS values.
T = Trace of Precipitation, MM = Missing Value Source: NWS Daily Summary

Daily Weather History Graph

Daily Weather History Graph

Search for Another Location

Airport or City:

Trip Planner

Search our weather history database for the weather conditions in past years. The results will help you decide how hot, cold, wet, or windy it might be!

Date:

Astronomy

Jan. 29, 2014 Rise Set
Actual Time 6:45 AM CST 5:25 PM CST
Civil Twilight 6:19 AM CST 5:51 PM CST
Nautical Twilight 5:50 AM CST 6:20 PM CST
Astronomical Twilight 5:22 AM CST 6:48 PM CST
Moon 5:21 AM CST (1/29) 4:24 PM CST (1/29)
Length of Visible Light 11h 31m
Length of Day
10h 40m
Waning Crescent, 2% of the Moon is Illuminated
Jan 29
Waning Crescent
Jan 30
New
Feb 6
First Quarter
Feb 14
Full
Feb 22
Last Quarter

Hourly Weather History & Observations

Time (CST) Temp. Windchill Dew Point Humidity Pressure Visibility Wind Dir Wind Speed Gust Speed Precip Events Conditions
12:53 AM 25.0 °F 12.6 °F 17.1 °F 72% 30.31 in 10.0 mi North 15.0 mph - N/A   Overcast
1:53 AM 24.1 °F 10.6 °F 15.1 °F 69% 30.30 in 10.0 mi North 17.3 mph 23.0 mph N/A   Overcast
2:53 AM 24.1 °F 10.6 °F 14.0 °F 65% 30.31 in 10.0 mi North 17.3 mph 25.3 mph N/A   Overcast
3:53 AM 24.1 °F 11.5 °F 12.0 °F 60% 30.31 in 10.0 mi North 15.0 mph - N/A   Clear
4:53 AM 23.0 °F 10.1 °F 10.9 °F 60% 30.32 in 10.0 mi North 15.0 mph 25.3 mph N/A   Clear
5:53 AM 21.9 °F 9.8 °F 10.9 °F 63% 30.37 in 10.0 mi NNW 12.7 mph - N/A   Clear
6:53 AM 21.9 °F 9.8 °F 10.0 °F 60% 30.39 in 10.0 mi North 12.7 mph - N/A   Clear
7:53 AM 21.9 °F 9.8 °F 10.0 °F 60% 30.40 in 10.0 mi North 12.7 mph 21.9 mph N/A   Clear
8:53 AM 23.0 °F 11.7 °F 10.0 °F 58% 30.43 in 10.0 mi North 11.5 mph - N/A   Clear
9:53 AM 24.1 °F 12.5 °F 10.0 °F 55% 30.43 in 10.0 mi North 12.7 mph - N/A   Clear
10:53 AM 26.1 °F 14.5 °F 9.0 °F 49% 30.44 in 10.0 mi North 13.8 mph - N/A   Clear
11:53 AM 27.0 °F 15.6 °F 9.0 °F 47% 30.40 in 10.0 mi North 13.8 mph - N/A   Unknown
12:53 PM 30.0 °F 19.5 °F 10.0 °F 43% 30.39 in 10.0 mi North 13.8 mph 20.7 mph N/A   Clear
1:53 PM 30.0 °F 19.5 °F 9.0 °F 41% 30.36 in 10.0 mi North 13.8 mph 20.7 mph N/A   Clear
2:53 PM 32.0 °F 22.5 °F 10.0 °F 40% 30.36 in 10.0 mi North 12.7 mph - N/A   Clear
3:53 PM 33.1 °F 24.4 °F 10.0 °F 38% 30.35 in 10.0 mi North 11.5 mph - N/A   Clear
4:53 PM 32.0 °F 23.0 °F 7.0 °F 35% 30.35 in 10.0 mi North 11.5 mph - N/A   Clear
5:53 PM 30.0 °F 21.1 °F 7.0 °F 38% 30.36 in 10.0 mi North 10.4 mph - N/A   Clear
6:53 PM 28.9 °F 20.4 °F 8.1 °F 41% 30.37 in 10.0 mi North 9.2 mph - N/A   Clear
7:53 PM 23.0 °F 14.7 °F 12.9 °F 65% 30.40 in 10.0 mi NNW 6.9 mph - N/A   Clear
8:53 PM 25.0 °F 16.3 °F 10.9 °F 55% 30.40 in 10.0 mi North 8.1 mph - N/A   Clear
9:53 PM 21.9 °F 13.4 °F 10.9 °F 63% 30.40 in 10.0 mi North 6.9 mph - N/A   Clear
10:53 PM 26.1 °F 17.6 °F 10.0 °F 51% 30.38 in 10.0 mi North 8.1 mph - N/A   Clear
11:53 PM 27.0 °F 16.1 °F 9.0 °F 47% 30.37 in 10.0 mi NNE 12.7 mph - N/A   Clear